Retour au catalogue

STARLINK-37743

ActifCommunicationsSSO
NORAD 69339·PAYLOAD·🇺🇸 United States

Lancé Jun 3, 2026 depuis Vandenberg Space Force Base

Loading…

Prochains Passages (prochaines 24 heures)

TLE

FraisSource: CelesTrak SupGP

Époque: Sep 14, 2026, 21:01 UTC

1 69339C 26122L   26257.87618056  .00015343  00000+0  47637-3 0  2578
2 69339  97.2822 286.5637 0001541  92.5646  12.7950 15.33424580    12

Suivez STARLINK-37743 en temps réel avec AllMySat

Download on the App Store